Simultaneous Nadir Overpasses (SNOs) Predictions

Prediction of SNOs between NOAA-20 and METOP-B Satellite Orbit:

Table of predicted SNOs for the next 14.0 days since TLE Epoch: 7/16/2022
Index Date (NOAA-20) Time (NOAA-20) Lat,Lon (NOAA-20) SZA (NOAA-20 ) Date (METOP-B) Time (METOP-B) Lat,Lon (METOP-B) SZA (METOP-B ) Distance(km) Time Diff (sec)
1 07/19/2022 14:10:20 73.46, -42.20 52.96 07/19/2022 14:11:27 73.40, -39.67 52.74 80.39 67
2 07/19/2022 15:01:02 -73.35, 125.36 127.16 07/19/2022 15:02:11 -73.31, 127.44 127.34 66.68 69
3 07/19/2022 15:51:44 73.17, -66.92 52.65 07/19/2022 15:52:55 73.08, -65.72 52.47 39.75 71
4 07/19/2022 16:42:26 -73.06, 100.63 127.47 07/19/2022 16:43:38 -73.03, 101.51 127.56 28.66 72
5 07/19/2022 17:33:08 72.87, -91.66 52.33 07/19/2022 17:34:21 72.85, -91.54 52.29 4.30 73
6 07/19/2022 18:23:50 -72.82, 75.77 127.73 07/19/2022 18:25:03 -72.81, 75.70 127.75 2.63 73
7 07/19/2022 19:14:36 72.83,-116.94 52.30 07/19/2022 19:15:42 72.83,-116.92 52.28 0.70 66
8 07/19/2022 20:05:20 -72.82, 50.38 127.70 07/19/2022 20:06:24 -72.84, 50.42 127.71 2.00 64
9 07/19/2022 20:56:06 72.84,-142.33 52.32 07/19/2022 20:57:04 72.81,-142.31 52.28 2.96 58
10 07/19/2022 21:46:50 -72.83, 24.99 127.68 07/19/2022 21:47:46 -72.82, 25.03 127.71 2.04 56
11 07/19/2022 22:37:35 72.79,-167.62 52.28 07/19/2022 22:38:26 72.79,-167.70 52.27 2.67 51
12 07/19/2022 23:28:19 -72.79, -0.29 127.72 07/19/2022 23:29:08 -72.80, -0.36 127.72 2.17 49
13 07/20/2022 00:19:05 72.80, 166.99 52.31 07/20/2022 00:19:47 72.82, 167.02 52.31 2.06 42
14 07/20/2022 01:09:49 -72.80, -25.68 127.70 07/20/2022 01:10:30 -72.77, -25.74 127.73 3.20 41
15 07/20/2022 02:00:35 72.81, 141.60 52.33 07/20/2022 02:01:09 72.79, 141.64 52.30 1.96 34
16 07/20/2022 02:51:19 -72.80, -51.07 127.67 07/20/2022 02:51:51 -72.80, -51.02 127.69 1.77 32
17 07/20/2022 03:42:04 72.77, 116.32 52.29 07/20/2022 03:42:31 72.77, 116.25 52.30 2.24 27
18 07/20/2022 04:32:48 -72.76, -76.36 127.71 07/20/2022 04:33:13 -72.78, -76.41 127.69 2.58 25
19 07/20/2022 05:23:34 72.77, 90.93 52.32 07/20/2022 05:23:53 72.75, 90.87 52.29 3.20 19
20 07/20/2022 06:14:18 -72.77,-101.75 127.69 07/20/2022 06:14:35 -72.76,-101.79 127.70 1.84 17
21 07/20/2022 07:05:04 72.78, 65.54 52.34 07/20/2022 07:05:14 72.78, 65.59 52.33 1.72 10
22 07/20/2022 07:55:48 -72.78,-127.14 127.66 07/20/2022 07:55:56 -72.79,-127.07 127.66 2.51 8
23 07/20/2022 08:46:33 72.74, 40.25 52.30 07/20/2022 08:46:36 72.76, 40.20 52.32 2.64 3
24 07/20/2022 09:37:18 -72.79,-152.53 127.64 07/20/2022 09:37:18 -72.77,-152.46 127.67 3.27 0
25 07/20/2022 10:28:03 72.75, 14.86 52.33 07/20/2022 10:27:58 72.74, 14.82 52.32 1.88 5
26 07/20/2022 11:18:47 -72.74,-177.82 127.68 07/20/2022 11:18:40 -72.74,-177.84 127.67 0.87 7
27 07/20/2022 12:09:33 72.75, -10.53 52.35 07/20/2022 12:09:19 72.76, -10.46 52.36 2.47 14
28 07/20/2022 13:00:17 -72.75, 156.79 127.65 07/20/2022 13:00:02 -72.72, 156.77 127.68 3.25 15
29 07/20/2022 13:51:03 72.76, -35.92 52.37 07/20/2022 13:50:41 72.74, -35.85 52.35 3.26 22
30 07/20/2022 14:41:47 -72.76, 131.40 127.63 07/20/2022 14:41:23 -72.75, 131.49 127.64 3.06 24
31 07/20/2022 15:32:32 72.72, -61.21 52.34 07/20/2022 15:32:03 72.72, -61.23 52.35 0.91 29
32 07/20/2022 16:23:16 -72.72, 106.12 127.67 07/20/2022 16:22:45 -72.73, 106.11 127.65 1.51 31
33 07/20/2022 17:14:02 72.73, -86.60 52.36 07/20/2022 17:13:25 72.70, -86.62 52.34 3.32 37
34 07/20/2022 18:04:46 -72.72, 80.73 127.64 07/20/2022 18:04:07 -72.71, 80.72 127.65 1.84 39
35 07/20/2022 18:55:32 72.74,-111.99 52.38 07/20/2022 18:54:46 72.73,-111.90 52.38 3.04 46
36 07/20/2022 19:46:15 -72.68, 55.44 127.68 07/20/2022 19:45:29 -72.68, 55.34 127.66 3.46 46
37 07/20/2022 20:37:01 72.69,-137.27 52.35 07/20/2022 20:36:08 72.70,-137.29 52.37 1.46 53
38 07/20/2022 21:27:45 -72.69, 30.05 127.66 07/20/2022 21:26:50 -72.71, 30.06 127.62 2.82 55
39 07/20/2022 22:18:31 72.70,-162.66 52.37 07/20/2022 22:17:30 72.68,-162.67 52.37 1.94 61
40 07/20/2022 23:09:15 -72.70, 4.66 127.63 07/20/2022 23:08:12 -72.69, 4.67 127.62 0.62 63
41 07/21/2022 00:00:01 72.71, 171.95 52.39 07/20/2022 23:58:51 72.71, 172.05 52.40 3.45 70
42 07/21/2022 00:50:44 -72.65, -20.63 127.67 07/21/2022 00:49:34 -72.67, -20.71 127.63 3.42 70
43 07/21/2022 01:41:29 72.61, 146.76 52.30 07/21/2022 01:40:15 72.59, 146.46 52.31 10.64 74
44 07/21/2022 02:32:12 -72.56, -45.81 127.76 07/21/2022 02:30:58 -72.55, -46.30 127.72 16.54 74
45 07/21/2022 03:22:53 72.32, 121.99 51.99 07/21/2022 03:21:42 72.31, 120.56 52.09 48.06 71
46 07/21/2022 04:13:36 -72.26, -70.59 128.07 07/21/2022 04:12:25 -72.27, -72.19 127.95 54.17 71
47 07/21/2022 05:04:16 71.96, 97.29 51.62 07/21/2022 05:03:10 71.98, 94.59 51.82 92.85 66
48 07/21/2022 05:54:59 -71.91, -95.30 128.44 07/21/2022 05:53:53 -71.94, -98.16 128.21 98.80 66



Historial Predications of SNOs between NOAA-20 and METOP-B
